"Timestamp","TZ","WindDir_Mean (deg)","WindSpd_Mean (km/h)","WindSpd_Min (km/h)","WindSpd_Max (km/h)","Temp_Mean (deg)","RH_Mean (%)","MSLP_Mean (hPa)","Rain_Acc (mm)","Rain_Intensity (mm/h)","Hail_Acc (hits/cm2)","Hail_Intensity (hits/cm2hr)","Solar_Mean (W/m2)"
2021/05/19 00:00:00.007,n,273,5.04,4.68,5.76,15.9,68.4,1027.22,0,0,0,0,0.036621
2021/05/19 00:01:00.000,n,263,1.8,1.44,2.88,15.9,68.7,1027.22,0,0,0,0,0.034866
2021/05/19 00:02:00.001,n,253,5.4,4.68,5.76,15.9,68.3,1027.22,0,0,0,0,0.033989
2021/05/19 00:03:00.000,n,250,3.96,3.24,4.68,15.9,68.4,1027.22,0,0,0,0,0.035744
2021/05/19 00:04:00.000,n,249,3.6,3.24,3.96,15.9,68.3,1027.22,0,0,0,0,0.035744
2021/05/19 00:05:00.000,n,257,5.76,5.04,6.84,15.9,68.9,1027.12,0,0,0,0,0.031395
2021/05/19 00:06:00.007,n,231,3.96,2.88,5.4,15.9,68.4,1027.22,0,0,0,0,0.039215
2021/05/19 00:07:00.004,n,244,3.24,2.88,3.96,15.9,68.4,1027.12,0,0,0,0,0.033989
2021/05/19 00:08:00.001,n,263,3.96,3.24,4.32,15.9,68.4,1027.12,0,0,0,0,0.038338
2021/05/19 00:09:00.014,n,258,5.04,4.68,5.4,15.9,68.3,1027.12,0,0,0,0,0.034866
2021/05/19 00:10:00.000,n,265,6.12,5.4,6.12,15.9,68.2,1027.12,0,0,0,0,0.032272
2021/05/19 00:11:00.000,n,277,3.24,1.44,4.32,15.9,68.4,1027.12,0,0,0,0,0.033989
2021/05/19 00:12:00.005,n,252,3.24,3.24,3.6,15.9,68.4,1027.12,0,0,0,0,0.038338
2021/05/19 00:13:00.002,n,231,3.24,2.16,3.96,15.9,68.3,1027.12,0,0,0,0,0.031395
2021/05/19 00:14:00.000,n,258,5.04,4.32,5.76,15.9,68.3,1027.12,0,0,0,0,0.032272
2021/05/19 00:15:00.000,n,224,2.16,0.72,2.88,15.9,68.3,1027.12,0,0,0,0,0.03746
2021/05/19 00:16:00.010,n,247,2.52,1.44,3.24,15.9,68.4,1027.12,0,0,0,0,0.033112
2021/05/19 00:17:00.007,n,267,3.6,3.24,3.96,15.9,68.6,1027.12,0,0,0,0,0.027046
2021/05/19 00:18:00.004,n,214,1.08,0.72,1.44,15.9,68.4,1027.12,0,0,0,0,0.031395
2021/05/19 00:19:00.001,n,270,6.12,5.76,6.48,15.9,68.3,1027.12,0,0,0,0,0.02964
2021/05/19 00:20:00.000,n,271,4.32,3.6,5.04,15.9,68.6,1027.12,0,0,0,0,0.032272
2021/05/19 00:21:00.000,n,261,6.48,6.12,6.84,15.9,68.4,1027.12,0,0,0,0,0.030479
2021/05/19 00:22:00.000,n,264,7.92,6.48,8.28,15.8,68.4,1027.02,0,0,0,0,0.030479
2021/05/19 00:23:00.000,n,234,4.68,2.88,5.4,15.8,68.8,1027.02,0,0,0,0,0.031395
2021/05/19 00:24:00.006,n,256,3.96,3.24,5.04,15.8,68.8,1027.02,0,0,0,0,0.026131
2021/05/19 00:25:00.003,n,260,4.32,3.6,5.04,15.8,68.5,1027.02,0,0,0,0,0.02964
2021/05/19 00:26:00.000,n,261,4.68,3.6,5.4,15.8,68.5,1027.02,0,0,0,0,0.021782
2021/05/19 00:27:00.014,n,264,7.2,6.48,7.92,15.8,68.4,1027.02,0,0,0,0,0.031395
2021/05/19 00:28:00.000,n,256,2.16,1.44,2.52,15.8,68.5,1027.02,0,0,0,0,0.030479
2021/05/19 00:29:00.000,n,332,1.08,0.72,2.16,15.8,69.5,1027.02,0,0,0,0,0.027885
2021/05/19 00:30:00.000,n,253,1.44,0.72,2.52,15.8,68.7,1027.02,0,0,0,0,0.02964
2021/05/19 00:31:00.002,n,216,2.52,1.8,2.88,15.8,68.7,1027.02,0,0,0,0,0.027046
2021/05/19 00:32:00.000,n,263,3.6,2.88,4.68,15.7,68.7,1027.02,0,0,0,0,0.023537
2021/05/19 00:33:00.000,n,274,2.52,1.44,3.6,15.7,68.8,1027.02,0,0,0,0,0.021782
2021/05/19 00:34:00.009,n,258,3.24,2.52,3.24,15.7,68.7,1027.02,0,0,0,0,0.025253
2021/05/19 00:35:00.003,n,258,1.44,1.44,1.8,15.7,68.8,1027.02,0,0,0,0,0.028763
2021/05/19 00:36:00.000,n,258,2.52,1.8,2.88,15.7,69,1027.02,0,0,0,0,0.027885
2021/05/19 00:37:00.000,n,186,0.72,0.36,0.72,15.7,69,1027.02,0,0,0,0,0.028763
2021/05/19 00:38:00.000,n,241,1.44,0.72,1.8,15.7,69.3,1027.02,0,0,0,0,0.031357
2021/05/19 00:39:00.000,n,283,0.36,0,0.72,15.6,69.4,1027.02,0,0,0,0,0.027885
2021/05/19 00:40:00.000,n,114,2.52,1.8,3.24,15.6,69.3,1026.92,0,0,0,0,0.025253
2021/05/19 00:41:00.003,n,251,4.68,3.96,5.4,15.6,69.3,1026.92,0,0,0,0,0.027008
2021/05/19 00:42:00.001,n,192,1.44,0.72,1.8,15.6,69.5,1026.92,0,0,0,0,0.025253
2021/05/19 00:43:00.000,n,202,3.24,2.88,3.6,15.6,69.5,1026.92,0,0,0,0,0.021782
2021/05/19 00:44:00.011,n,203,2.88,2.52,3.6,15.6,69.4,1026.92,0,0,0,0,0.024414
2021/05/19 00:45:00.009,n,266,2.52,2.16,3.24,15.6,69.5,1026.92,0,0,0,0,0.022659
2021/05/19 00:46:00.000,n,231,2.52,2.16,2.88,15.6,69.4,1026.92,0,0,0,0,0.019188
2021/05/19 00:47:00.004,n,275,2.16,2.16,2.52,15.6,69.6,1026.92,0,0,0,0,0.019188
2021/05/19 00:48:00.001,n,206,0.36,0.36,1.08,15.6,69.9,1026.92,0,0,0,0,0.020027
2021/05/19 00:49:00.000,n,227,3.96,3.6,4.32,15.6,69.6,1026.92,0,0,0,0,0.022659
2021/05/19 00:50:00.000,n,257,5.76,5.04,6.48,15.5,69.5,1026.92,0,0,0,0,0.026131
2021/05/19 00:51:00.006,n,194,1.44,0.72,2.16,15.5,69.5,1026.92,0,0,0,0,0.02964
2021/05/19 00:52:00.005,n,238,2.16,1.8,2.88,15.5,69.5,1026.92,0,0,0,0,0.027008
2021/05/19 00:53:00.003,n,281,3.6,3.24,3.96,15.5,69.5,1026.92,0,0,0,0,0.026131
2021/05/19 00:54:00.000,n,261,0.72,0.36,2.88,15.5,69.5,1026.92,0,0,0,0,0.028725
2021/05/19 00:55:00.000,n,154,1.08,0.36,1.8,15.6,69.5,1026.92,0,0,0,0,0.028725
2021/05/19 00:56:00.000,n,160,3.96,2.16,5.04,15.6,69.6,1027.02,0,0,0,0,0.022659
2021/05/19 00:57:00.000,n,178,3.24,2.16,3.96,15.6,69.5,1027.02,0,0,0,0,0.01915
2021/05/19 00:58:00.005,n,181,3.6,2.88,4.32,15.6,69.6,1027.02,0,0,0,0,0.023499
2021/05/19 00:59:00.002,n,162,6.48,6.12,7.2,15.6,69.5,1027.02,0,0,0,0,0.023499
2021/05/19 01:00:00.000,n,134,2.52,1.8,3.6,15.6,69.4,1027.02,0,0,0,0,0.022659
2021/05/19 01:01:00.012,n,221,1.44,0.72,2.16,15.6,69.4,1027.02,0,0,0,0,0.024376
2021/05/19 01:02:00.011,n,167,3.24,2.88,3.96,15.6,69.5,1027.02,0,0,0,0,0.020027
2021/05/19 01:03:00.008,n,250,3.6,3.24,3.96,15.6,69.5,1027.02,0,0,0,0,0.020905
2021/05/19 01:04:00.000,n,256,3.24,2.88,3.6,15.6,69.9,1027.02,0,0,0,0,0.022659
2021/05/19 01:05:00.002,n,90,2.16,1.8,2.88,15.6,69.8,1027.02,0,0,0,0,0.020027
2021/05/19 01:06:00.000,n,178,3.96,3.24,4.68,15.6,69.5,1027.02,0,0,0,0,0.022659
2021/05/19 01:07:00.000,n,230,2.16,1.8,2.16,15.7,69.6,1027.02,0,0,0,0,0.017433
2021/05/19 01:08:00.000,n,191,4.68,2.88,6.12,15.7,69.7,1026.92,0,0,0,0,0.021782
2021/05/19 01:09:00.007,n,277,3.96,2.88,4.32,15.7,69.6,1026.92,0,0,0,0,0.022659
2021/05/19 01:10:00.005,n,137,0.72,0.36,1.08,15.7,69.9,1026.92,0,0,0,0,0.020905
2021/05/19 01:11:00.003,n,254,0.72,0.36,0.72,15.7,69.6,1026.92,0,0,0,0,0.021782
2021/05/19 01:12:00.000,n,259,2.52,2.16,2.52,15.7,69.5,1026.92,0,0,0,0,0.017433
2021/05/19 01:13:00.000,n,249,3.24,2.88,3.6,15.7,69.8,1026.92,0,0,0,0,0.01915
2021/05/19 01:14:00.000,n,201,1.8,1.44,2.16,15.7,70.3,1026.92,0,0,0,0,0.020905
2021/05/19 01:15:00.000,n,348,1.44,1.08,2.16,15.7,69.9,1026.92,0,0,0,0,0.01915
2021/05/19 01:16:00.005,n,147,0.72,0.72,1.08,15.7,69.6,1026.92,0,0,0,0,0.024376
2021/05/19 01:17:00.002,n,113,1.44,1.08,1.8,15.7,69.2,1026.92,0,0,0,0,0.017433
2021/05/19 01:18:00.000,n,213,0.72,0.36,1.08,15.7,69.3,1026.92,0,0,0,0,0.021782
2021/05/19 01:19:00.000,n,157,3.24,2.88,3.96,15.7,69.5,1026.92,0,0,0,0,0.021782
2021/05/19 01:20:00.010,n,115,0.72,0.36,1.08,15.7,69.8,1026.92,0,0,0,0,0.024376
2021/05/19 01:21:00.007,n,155,2.52,1.44,3.24,15.8,69.3,1026.92,0,0,0,0,0.020027
2021/05/19 01:22:00.000,n,164,0.72,0.36,1.08,15.8,69.3,1026.92,0,0,0,0,0.022659
2021/05/19 01:23:00.000,n,144,2.88,2.52,3.24,15.8,69.2,1026.92,0,0,0,0,0.021782
2021/05/19 01:24:00.000,n,190,2.52,1.08,4.32,15.7,69.1,1026.92,0,0,0,0,0.020027
2021/05/19 01:25:00.000,n,181,2.88,1.08,4.32,15.7,69.2,1026.92,0,0,0,0,0.025253
2021/05/19 01:26:00.000,n,236,2.16,1.44,2.52,15.7,69.3,1026.92,0,0,0,0,0.01915
2021/05/19 01:27:00.007,n,157,5.76,5.4,6.12,15.7,69.3,1026.92,0,0,0,0,0.020905
2021/05/19 01:28:00.004,n,212,3.96,3.6,4.32,15.8,69.4,1026.92,0,0,0,0,0.027008
2021/05/19 01:29:00.002,n,38,0.72,0.36,1.08,15.8,70.3,1026.92,0,0,0,0,0.024376
2021/05/19 01:30:00.000,n,247,0.72,0.36,1.08,15.8,69.6,1026.92,0,0,0,0,0.027008
2021/05/19 01:31:00.000,n,161,1.08,0.72,1.08,15.8,69.4,1026.92,0,0,0,0,0.026131
2021/05/19 01:32:00.000,n,201,1.08,0.72,1.44,15.8,69.4,1027.02,0,0,0,0,0.025253
2021/05/19 01:33:00.000,n,162,0.72,0.36,1.08,15.8,69.6,1026.92,0,0,0,0,0.022659
2021/05/19 01:34:00.006,n,149,2.88,2.16,4.32,15.8,69.6,1026.92,0,0,0,0,0.023499
2021/05/19 01:35:00.003,n,147,2.16,1.44,2.52,15.8,69.6,1026.92,0,0,0,0,0.027008
2021/05/19 01:36:00.000,n,215,0.36,0.36,0.36,15.8,69.7,1026.92,0,0,0,0,0.023499
2021/05/19 01:37:00.000,n,145,5.4,4.32,6.12,15.8,69.4,1026.92,0,0,0,0,0.027008
2021/05/19 01:38:00.011,n,149,3.24,2.52,3.6,15.8,69.6,1026.92,0,0,0,0,0.027008
2021/05/19 01:39:00.008,n,160,2.52,1.44,3.24,15.8,69.7,1026.92,0,0,0,0,0.027008
2021/05/19 01:40:00.000,n,260,2.16,1.44,2.16,15.8,69.7,1026.92,0,0,0,0,0.025253
2021/05/19 01:41:00.001,n,261,1.8,1.44,2.16,15.8,69.7,1026.92,0,0,0,0,0.024376
2021/05/19 01:42:00.000,n,241,1.08,0.72,1.8,15.8,69.9,1026.92,0,0,0,0,0.026131
2021/05/19 01:43:00.000,n,124,0.72,0.36,1.44,15.8,69.8,1026.92,0,0,0,0,0.025253
2021/05/19 01:44:00.000,n,170,2.52,2.16,2.88,15.8,69.9,1026.92,0,0,0,0,0.026131
2021/05/19 01:45:00.007,n,163,3.6,2.88,4.32,15.8,69.9,1026.92,0,0,0,0,0.028725
2021/05/19 01:46:00.004,n,175,3.96,3.6,4.32,15.7,69.9,1026.92,0,0,0,0,0.026131
2021/05/19 01:47:00.001,n,182,0.72,0.36,1.08,15.7,70.1,1026.92,0,0,0,0,0.026131
2021/05/19 01:48:00.015,n,280,1.44,1.08,1.8,15.7,70.2,1026.92,0,0,0,0,0.027847
2021/05/19 01:49:00.000,n,152,1.44,1.08,1.8,15.7,70.6,1026.92,0,0,0,0,0.028725
2021/05/19 01:50:00.000,n,155,2.52,2.52,3.24,15.7,70.4,1026.92,0,0,0,0,0.021782
2021/05/19 01:51:00.000,n,176,1.08,0.72,1.44,15.8,70.4,1026.92,0,0,0,0,0.027008
2021/05/19 01:52:00.004,n,188,3.6,2.88,3.96,15.7,70.1,1026.82,0,0,0,0,0.02964
2021/05/19 01:53:00.001,n,177,5.4,3.6,6.48,15.7,70.2,1026.82,0,0,0,0,0.02964
2021/05/19 01:54:00.000,n,143,3.24,2.52,3.96,15.7,70,1026.82,0,0,0,0,0.030479
2021/05/19 01:55:00.010,n,160,5.04,4.68,5.76,15.7,70.2,1026.82,0,0,0,0,0.033073
2021/05/19 01:56:00.007,n,190,4.32,3.96,4.68,15.7,70.3,1026.82,0,0,0,0,0.031357
2021/05/19 01:57:00.005,n,178,1.08,0.72,1.8,15.7,70.2,1026.82,0,0,0,0,0.030479
2021/05/19 01:58:00.002,n,255,3.24,2.88,3.96,15.7,70.4,1026.82,0,0,0,0,0.031357
2021/05/19 01:59:00.000,n,112,1.08,0.36,2.16,15.7,70.5,1026.82,0,0,0,0,0.030479
2021/05/19 02:00:00.000,n,208,2.88,2.16,3.24,15.7,70.5,1026.82,0,0,0,0,0.026131
2021/05/19 02:01:00.000,n,355,1.08,0.36,1.44,15.7,71.4,1026.82,0,0,0,0,0.033073
2021/05/19 02:02:00.006,n,281,2.52,1.08,3.24,15.7,70.9,1026.72,0,0,0,0,0.031357
2021/05/19 02:03:00.003,n,170,0.72,0.36,1.08,15.7,70.3,1026.82,0,0,0,0,0.02964
2021/05/19 02:04:00.000,n,240,0.72,0.36,0.72,15.7,70.3,1026.82,0,0,0,0,0.030479
2021/05/19 02:05:00.013,n,149,3.6,2.88,5.04,15.7,70.4,1026.82,0,0,0,0,0.031357
2021/05/19 02:06:00.010,n,182,5.4,5.04,6.12,15.7,70.3,1026.72,0,0,0,0,0.032234
2021/05/19 02:07:00.000,n,182,4.32,3.6,4.68,15.7,69.8,1026.72,0,0,0,0,0.033073
2021/05/19 02:08:00.000,n,174,7.56,6.48,9.72,15.7,69.8,1026.72,0,0,0,0,0.033073
2021/05/19 02:09:00.000,n,181,5.04,4.32,6.12,15.7,69.8,1026.72,0,0,0,0,0.033989
2021/05/19 02:10:00.000,n,219,4.32,3.6,5.04,15.7,69.9,1026.72,0,0,0,0,0.033989
2021/05/19 02:11:00.000,n,171,2.52,1.08,3.96,15.7,69.6,1026.72,0,0,0,0,0.030479
2021/05/19 02:12:00.009,n,178,8.28,6.48,9,15.7,69.4,1026.72,0,0,0,0,0.032234
2021/05/19 02:13:00.006,n,172,6.48,5.04,7.2,15.7,69.4,1026.72,0,0,0,0,0.028725
2021/05/19 02:14:00.003,n,207,3.96,3.96,4.32,15.7,69.9,1026.72,0,0,0,0,0.02964
2021/05/19 02:15:00.001,n,239,1.44,1.08,2.16,15.7,69.7,1026.72,0,0,0,0,0.032234
2021/05/19 02:16:00.000,n,249,2.16,1.8,2.88,15.7,70.4,1026.72,0,0,0,0,0.031357
2021/05/19 02:17:00.000,n,271,1.08,0.72,1.44,15.7,70.4,1026.72,0,0,0,0,0.033073
2021/05/19 02:18:00.000,n,253,0.72,0.36,1.08,15.8,70.8,1026.72,0,0,0,0,0.030479
2021/05/19 02:19:00.005,n,111,2.88,2.52,3.6,15.8,70.7,1026.72,0,0,0,0,0.02964
2021/05/19 02:20:00.002,n,189,1.44,0.72,3.96,15.7,70.9,1026.72,0,0,0,0,0.032234
2021/05/19 02:21:00.000,n,267,2.88,2.88,3.24,15.7,71.1,1026.72,0,0,0,0,0.027847
2021/05/19 02:22:00.012,n,179,2.52,2.52,3.24,15.7,71,1026.72,0,0,0,0,0.027847
2021/05/19 02:23:00.009,n,161,4.68,0.36,8.28,15.7,70.9,1026.72,0,0,0,0,0.031357
2021/05/19 02:24:00.007,n,143,1.8,1.44,2.52,15.7,71,1026.72,0,0,0,0,0.026131
2021/05/19 02:25:00.000,n,157,2.52,2.16,3.6,15.7,71.1,1026.72,0,0,0,0,0.035706
2021/05/19 02:26:00.000,n,71,0.72,0.36,1.44,15.6,71.1,1026.72,0,0,0,0,0.032234
2021/05/19 02:27:00.000,n,173,4.32,3.6,5.04,15.6,71.2,1026.72,0,0,0,0,0.030479
2021/05/19 02:28:00.000,n,106,2.16,0.72,4.68,15.6,71.2,1026.72,0,0,0,0,0.035706
2021/05/19 02:29:00.008,n,208,3.96,3.96,4.68,15.6,71,1026.72,0,0,0,0,0.037422
2021/05/19 02:30:00.005,n,180,6.84,5.4,7.56,15.6,70.4,1026.72,0,0,0,0,0.032234
2021/05/19 02:31:00.002,n,239,2.52,1.44,3.96,15.6,70.8,1026.62,0,0,0,0,0.02964
2021/05/19 02:32:00.000,n,220,3.24,2.52,3.96,15.6,70.9,1026.62,0,0,0,0,0.032234
2021/05/19 02:33:00.012,n,197,2.16,1.44,2.88,15.6,71,1026.62,0,0,0,0,0.028725
2021/05/19 02:34:00.000,n,181,4.68,1.8,6.84,15.6,71,1026.62,0,0,0,0,0.027008
2021/05/19 02:35:00.000,n,161,5.04,2.88,6.12,15.6,71.2,1026.62,0,0,0,0,0.032234
2021/05/19 02:36:00.000,n,301,1.08,0.36,2.16,15.6,71.7,1026.52,0,0,0,0,0.030479
2021/05/19 02:37:00.002,n,253,2.16,1.8,3.24,15.6,71.6,1026.52,0,0,0,0,0.030479
2021/05/19 02:38:00.000,n,252,2.16,1.44,2.88,15.6,72.1,1026.52,0,0,0,0,0.033073
2021/05/19 02:39:00.000,n,113,2.52,1.8,3.24,15.6,71.7,1026.52,0,0,0,0,0.032234
2021/05/19 02:40:00.010,n,131,3.6,3.24,4.32,15.6,71.6,1026.52,0,0,0,0,0.031357
2021/05/19 02:41:00.007,n,298,3.6,3.24,4.32,15.6,72.1,1026.52,0,0,0,0,0.030479
2021/05/19 02:42:00.003,n,126,2.16,1.08,2.88,15.6,72,1026.52,0,0,0,0,0.028725
2021/05/19 02:43:00.001,n,147,4.32,2.16,5.04,15.6,71.8,1026.52,0,0,0,0,0.028725
2021/05/19 02:44:00.000,n,224,2.88,2.16,3.6,15.6,71.8,1026.52,0,0,0,0,0.033073
2021/05/19 02:45:00.000,n,241,2.88,2.52,3.6,15.5,72.2,1026.42,0,0,0,0,0.033073
2021/05/19 02:46:00.000,n,236,3.24,3.24,3.96,15.5,72.2,1026.42,0,0,0,0,0.031357
2021/05/19 02:47:00.005,n,201,2.16,1.08,4.32,15.5,72.2,1026.42,0,0,0,0,0.032234
2021/05/19 02:48:00.002,n,263,2.52,1.8,3.24,15.5,72.3,1026.32,0,0,0,0,0.031357
2021/05/19 02:49:00.000,n,212,2.52,2.16,2.88,15.5,72.3,1026.32,0,0,0,0,0.027008
2021/05/19 02:50:00.013,n,262,2.16,0.36,4.68,15.5,72.5,1026.32,0,0,0,0,0.027847
2021/05/19 02:51:00.010,n,158,3.24,2.52,3.6,15.5,72.6,1026.32,0,0,0,0,0.022659
2021/05/19 02:52:00.000,n,225,3.24,2.52,3.96,15.5,72.6,1026.32,0,0,0,0,0.027847
2021/05/19 02:53:00.003,n,56,2.52,0.36,3.96,15.5,72.5,1026.32,0,0,0,0,0.027008
2021/05/19 02:54:00.000,n,232,3.24,2.16,3.96,15.4,72.6,1026.32,0,0,0,0,0.02964
2021/05/19 02:55:00.000,n,154,1.44,0.36,2.88,15.4,72.6,1026.32,0,0,0,0,0.027847
2021/05/19 02:56:00.000,n,189,2.52,1.8,2.88,15.4,72.6,1026.32,0,0,0,0,0.02964
2021/05/19 02:57:00.008,n,146,7.56,6.12,8.28,15.4,72.5,1026.32,0,0,0,0,0.027847
2021/05/19 02:58:00.005,n,190,2.88,1.8,4.32,15.4,72.2,1026.42,0,0,0,0,0.027008
2021/05/19 02:59:00.002,n,213,3.96,3.96,4.32,15.3,72.4,1026.42,0,0,0,0,0.025253
2021/05/19 03:00:00.000,n,160,9.36,5.76,10.8,15.3,72,1026.32,0,0,0,0,0.027008
2021/05/19 03:01:00.000,n,146,3.96,3.6,4.32,15.3,72.4,1026.32,0,0,0,0,0.022659
2021/05/19 03:02:00.000,n,157,5.04,4.68,5.76,15.3,72.4,1026.32,0,0,0,0,0.026131
2021/05/19 03:03:00.000,n,248,5.04,4.32,5.76,15.3,72.5,1026.32,0,0,0,0,0.021782
2021/05/19 03:04:00.004,n,179,1.8,1.44,3.24,15.3,72.5,1026.32,0,0,0,0,0.025253
2021/05/19 03:05:00.001,n,226,4.32,3.96,4.68,15.3,72.8,1026.32,0,0,0,0,0.026131
2021/05/19 03:06:00.000,n,163,5.76,4.68,6.84,15.3,72.8,1026.32,0,0,0,0,0.022659
2021/05/19 03:07:00.011,n,294,3.96,3.24,4.68,15.3,73.3,1026.32,0,0,0,0,0.024376
2021/05/19 03:08:00.009,n,140,0.36,0.36,0.36,15.3,73.5,1026.32,0,0,0,0,0.021782
2021/05/19 03:09:00.005,n,265,1.44,0.72,2.52,15.3,73.5,1026.32,0,0,0,0,0.024376
2021/05/19 03:10:00.000,n,232,2.52,2.16,2.88,15.2,73.4,1026.32,0,0,0,0,0.021782
2021/05/19 03:11:00.000,n,211,0.72,0.36,1.44,15.2,73.8,1026.32,0,0,0,0,0.022659
2021/05/19 03:12:00.000,n,246,2.16,1.8,2.52,15.2,73.9,1026.32,0,0,0,0,0.023499
2021/05/19 03:13:00.000,n,214,1.08,0.72,1.08,15.2,73.8,1026.32,0,0,0,0,0.017433
2021/05/19 03:14:00.008,n,106,1.44,0.72,1.8,15.2,73.9,1026.32,0,0,0,0,0.014801
2021/05/19 03:15:00.005,n,90,0.36,0,0.36,15.2,74,1026.32,0,0,0,0,0.017433
2021/05/19 03:16:00.002,n,311,3.24,2.52,4.68,15.2,74.2,1026.32,0,0,0,0,0.020027
2021/05/19 03:17:00.000,n,275,4.32,2.52,5.04,15.2,74.1,1026.32,0,0,0,0,0.017433
2021/05/19 03:18:00.012,n,244,2.52,2.16,2.88,15.1,73.8,1026.32,0,0,0,0,0.021782
2021/05/19 03:19:00.000,n,255,3.96,3.24,4.32,15.1,73.9,1026.22,0,0,0,0,0.026131
2021/05/19 03:20:00.000,n,252,2.16,1.8,2.52,15.1,74.1,1026.22,0,0,0,0,0.028763
2021/05/19 03:21:00.001,n,271,3.24,2.16,4.68,15.1,74.1,1026.22,0,0,0,0,0.030479
2021/05/19 03:22:00.000,n,192,2.16,1.8,2.52,15,74.1,1026.22,0,0,0,0,0.030479
2021/05/19 03:23:00.000,n,261,7.56,5.04,9.36,15,74,1026.32,0,0,0,0,0.027885
2021/05/19 03:24:00.009,n,230,2.52,2.16,2.88,15,74.2,1026.32,0,0,0,0,0.027885
2021/05/19 03:25:00.006,n,104,2.88,0.72,6.12,15,74.3,1026.32,0,0,0,0,0.02697
2021/05/19 03:26:00.003,n,282,3.96,3.96,4.32,15,74.4,1026.32,0,0,0,0,0.028763
2021/05/19 03:27:00.000,n,304,2.88,2.52,4.32,15,74.6,1026.32,0,0,0,0,0.02697
2021/05/19 03:28:00.000,n,289,1.8,1.08,3.24,15,74.5,1026.32,0,0,0,0,0.027885
2021/05/19 03:29:00.000,n,223,3.96,2.88,5.4,14.9,74.2,1026.32,0,0,0,0,0.023537
2021/05/19 03:30:00.000,n,322,2.16,1.08,3.6,14.9,74.7,1026.32,0,0,0,0,0.025253
2021/05/19 03:31:00.004,n,245,2.16,1.44,3.24,14.9,74.4,1026.32,0,0,0,0,0.027885
2021/05/19 03:32:00.002,n,247,5.04,4.32,5.76,14.9,73.8,1026.42,0,0,0,0,0.023537
2021/05/19 03:33:00.000,n,263,4.32,2.88,5.04,14.9,73.7,1026.42,0,0,0,0,0.025253
2021/05/19 03:34:00.000,n,299,3.24,1.8,3.96,14.8,73.8,1026.42,0,0,0,0,0.026131
2021/05/19 03:35:00.010,n,259,5.04,4.32,5.4,14.8,73.7,1026.42,0,0,0,0,0.028763
2021/05/19 03:36:00.007,n,263,5.04,5.04,5.4,14.8,73.8,1026.42,0,0,0,0,0.030479
2021/05/19 03:37:00.000,n,268,5.04,4.68,5.76,14.8,73.9,1026.42,0,0,0,0,0.024376
2021/05/19 03:38:00.001,n,264,2.52,2.16,2.88,14.8,74,1026.42,0,0,0,0,0.026131
2021/05/19 03:39:00.000,n,257,3.96,3.6,4.68,14.7,73.9,1026.42,0,0,0,0,0.02697
2021/05/19 03:40:00.000,n,270,3.6,2.88,4.32,14.7,74.1,1026.52,0,0,0,0,0.019188
2021/05/19 03:41:00.009,n,256,3.96,1.44,6.48,14.7,74,1026.52,0,0,0,0,0.02697
2021/05/19 03:42:00.006,n,268,4.68,3.6,5.4,14.7,73.9,1026.42,0,0,0,0,0.023537
2021/05/19 03:43:00.003,n,246,3.24,2.52,3.96,14.7,73.8,1026.42,0,0,0,0,0.026131
2021/05/19 03:44:00.000,n,249,3.96,3.96,4.32,14.7,73.8,1026.52,0,0,0,0,0.022621
2021/05/19 03:45:00.014,n,271,2.88,2.52,3.24,14.7,73.9,1026.52,0,0,0,0,0.024376
2021/05/19 03:46:00.000,n,298,4.32,3.96,5.04,14.7,73.8,1026.52,0,0,0,0,0.022621
2021/05/19 03:47:00.000,n,272,3.24,2.16,3.96,14.7,73.9,1026.52,0,0,0,0,0.013924
2021/05/19 03:48:00.000,n,268,6.84,4.32,8.28,14.7,73.4,1026.52,0,0,0,0,0.021782
2021/05/19 03:49:00.004,n,281,3.96,3.24,4.68,14.7,73.6,1026.52,0,0,0,0,0.020027
2021/05/19 03:50:00.002,n,261,8.28,5.76,10.08,14.7,73.3,1026.62,0,0,0,0,0.030479
2021/05/19 03:51:00.000,n,250,3.96,3.24,5.04,14.7,73.4,1026.52,0,0,0,0,0.030479
2021/05/19 03:52:00.012,n,290,6.84,5.4,7.56,14.7,73.3,1026.62,0,0,0,0,0.033112
2021/05/19 03:53:00.009,n,269,4.68,3.96,5.04,14.7,73.3,1026.62,0,0,0,0,0.033112
2021/05/19 03:54:00.006,n,276,5.4,4.68,7.2,14.7,73.5,1026.62,0,0,0,0,0.033112
2021/05/19 03:55:00.000,n,286,6.48,6.12,6.84,14.7,73.5,1026.62,0,0,0,0,0.033112
2021/05/19 03:56:00.000,n,260,6.84,6.12,7.56,14.6,73.2,1026.62,0,0,0,0,0.032234
2021/05/19 03:57:00.000,n,245,6.48,5.4,7.2,14.6,73.1,1026.62,0,0,0,0,0.030479
2021/05/19 03:58:00.000,n,255,2.88,2.52,2.88,14.6,73.5,1026.62,0,0,0,0,0.035706
2021/05/19 03:59:00.000,n,266,5.76,1.8,7.56,14.6,73.3,1026.62,0,0,0,0,0.030479
2021/05/19 04:00:00.007,n,282,6.48,5.76,6.84,14.6,73.3,1026.62,0,0,0,0,0.034828
2021/05/19 04:01:00.004,n,284,6.48,5.4,7.92,14.6,73.4,1026.62,0,0,0,0,0.033112
2021/05/19 04:02:00.001,n,274,3.96,2.88,4.68,14.6,73.8,1026.62,0,0,0,0,0.029602
2021/05/19 04:03:00.014,n,269,3.6,2.88,4.32,14.6,74.2,1026.62,0,0,0,0,0.032234
2021/05/19 04:04:00.000,n,278,3.6,2.88,5.76,14.6,73.7,1026.62,0,0,0,0,0.033112
2021/05/19 04:05:00.000,n,246,3.96,3.24,4.68,14.7,73.8,1026.62,0,0,0,0,0.031357
2021/05/19 04:06:00.000,n,242,6.48,6.12,6.48,14.7,73.5,1026.62,0,0,0,0,0.031357
2021/05/19 04:07:00.003,n,241,4.32,3.6,4.68,14.6,73.4,1026.62,0,0,0,0,0.033112
2021/05/19 04:08:00.001,n,248,8.28,6.12,10.440002,14.6,73.2,1026.62,0,0,0,0,0.029602
2021/05/19 04:09:00.000,n,265,7.56,6.84,8.28,14.6,73.1,1026.72,0,0,0,0,0.033989
2021/05/19 04:10:00.011,n,273,4.32,3.6,5.04,14.6,73.2,1026.72,0,0,0,0,0.034828
2021/05/19 04:11:00.009,n,248,6.48,5.76,6.84,14.6,73.4,1026.72,0,0,0,0,0.028763
2021/05/19 04:12:00.006,n,261,5.4,5.04,5.76,14.6,73.1,1026.72,0,0,0,0,0.032234
2021/05/19 04:13:00.000,n,28,2.16,1.08,3.24,14.6,75.4,1026.72,0,0,0,0,0.034828
2021/05/19 04:14:00.000,n,271,4.68,3.96,5.04,14.7,73.5,1026.72,0,0,0,0,0.028763
2021/05/19 04:15:00.000,n,265,5.04,4.68,5.4,14.6,73.2,1026.72,0,0,0,0,0.033989
2021/05/19 04:16:00.000,n,272,3.96,3.6,4.32,14.6,73.2,1026.72,0,0,0,0,0.029602
2021/05/19 04:17:00.000,n,268,7.2,6.84,7.92,14.6,73.1,1026.72,0,0,0,0,0.033112
2021/05/19 04:18:00.006,n,205,0.72,0.36,0.72,14.6,73.2,1026.72,0,0,0,0,0.033112
2021/05/19 04:19:00.004,n,278,4.68,4.32,4.68,14.6,73.6,1026.72,0,0,0,0,0.035706
2021/05/19 04:20:00.001,n,271,4.68,4.32,5.04,14.6,74,1026.72,0,0,0,0,0.033989
2021/05/19 04:21:00.015,n,248,4.68,3.96,5.4,14.6,73.6,1026.72,0,0,0,0,0.033989
2021/05/19 04:22:00.000,n,280,6.84,6.48,7.56,14.5,73.4,1026.72,0,0,0,0,0.031357
2021/05/19 04:23:00.000,n,258,6.12,5.76,6.48,14.5,73.4,1026.72,0,0,0,0,0.032234
2021/05/19 04:24:00.000,n,267,4.68,3.96,5.76,14.5,73.6,1026.72,0,0,0,0,0.033112
2021/05/19 04:25:00.004,n,253,5.76,5.04,6.84,14.5,73.7,1026.72,0,0,0,0,0.031357
2021/05/19 04:26:00.001,n,260,6.12,5.04,6.84,14.5,73.6,1026.72,0,0,0,0,0.033112
2021/05/19 04:27:00.000,n,262,3.24,2.88,3.6,14.5,73.7,1026.72,0,0,0,0,0.029602
2021/05/19 04:28:00.011,n,234,3.96,2.52,5.76,14.5,73.7,1026.72,0,0,0,0,0.032234
2021/05/19 04:29:00.007,n,265,4.32,3.96,4.68,14.5,73.6,1026.72,0,0,0,0,0.034828
2021/05/19 04:30:00.005,n,272,5.76,4.32,6.48,14.5,73.6,1026.72,0,0,0,0,0.033112
2021/05/19 04:31:00.000,n,262,5.04,3.6,5.4,14.5,73.6,1026.72,0,0,0,0,0.032234
2021/05/19 04:32:00.000,n,268,2.52,1.44,3.24,14.5,73.8,1026.72,0,0,0,0,0.031357
2021/05/19 04:33:00.000,n,298,5.04,3.96,7.2,14.6,73.6,1026.72,0,0,0,0,0.030479
2021/05/19 04:34:00.000,n,266,3.24,2.52,3.6,14.6,73.7,1026.72,0,0,0,0,0.028763
2021/05/19 04:35:00.006,n,243,4.32,3.6,5.04,14.6,73.6,1026.72,0,0,0,0,0.028763
2021/05/19 04:36:00.003,n,250,2.88,2.16,3.6,14.6,73.6,1026.72,0,0,0,0,0.031357
2021/05/19 04:37:00.000,n,243,0.72,0.36,1.08,14.6,73.7,1026.72,0,0,0,0,0.033112
2021/05/19 04:38:00.013,n,266,5.76,5.04,6.48,14.6,73.6,1026.72,0,0,0,0,0.026131
2021/05/19 04:39:00.010,n,292,2.88,2.16,3.6,14.6,73.4,1026.72,0,0,0,0,0.026131
2021/05/19 04:40:00.000,n,282,1.8,1.08,2.16,14.6,73.4,1026.72,0,0,0,0,0.027885
2021/05/19 04:41:00.000,n,234,0.36,0.36,0.72,14.6,73.5,1026.72,0,0,0,0,0.033112
2021/05/19 04:42:00.001,n,242,3.24,2.16,3.96,14.6,73.6,1026.72,0,0,0,0,0.027885
2021/05/19 04:43:00.000,n,245,4.68,3.96,5.4,14.6,73.6,1026.72,0,0,0,0,0.030479
2021/05/19 04:44:00.000,n,253,5.04,3.96,6.12,14.7,73.4,1026.72,0,0,0,0,0.029602
2021/05/19 04:45:00.008,n,248,5.4,5.04,5.76,14.7,73.3,1026.72,0,0,0,0,0.031357
2021/05/19 04:46:00.005,n,257,2.16,1.44,2.88,14.7,73.4,1026.72,0,0,0,0,0.031357
2021/05/19 04:47:00.002,n,12,1.8,0.36,2.52,14.7,73.6,1026.72,0,0,0,0,0.031357
2021/05/19 04:48:00.016,n,266,3.96,3.24,5.04,14.7,73.4,1026.72,0,0,0,0,0.034828
2021/05/19 04:49:00.000,n,265,3.96,2.88,4.68,14.7,73.3,1026.72,0,0,0,0,0.029602
2021/05/19 04:50:00.000,n,256,2.88,1.8,5.4,14.7,73.4,1026.72,0,0,0,0,0.032234
2021/05/19 04:51:00.000,n,247,5.04,4.32,5.4,14.7,73.4,1026.72,0,0,0,0,0.028763
2021/05/19 04:52:00.005,n,265,3.24,2.52,3.96,14.7,73.4,1026.72,0,0,0,0,0.031357
2021/05/19 04:53:00.002,n,256,5.4,4.68,5.76,14.7,73.3,1026.62,0,0,0,0,0.027885
2021/05/19 04:54:00.000,n,282,6.84,6.12,7.92,14.7,73.6,1026.62,0,0,0,0,0.031357